Wind_Speed
3 3 3 3 3 4 4 4 4 5 5 5 5 4 4 5 4 4 4 4 4 4 4 3 3 2 2 2 2 2 3 2 2 2 2 2 2 1 1 0 0 0 0 1 1 1 1 2 2
3 3 3 3 3 4 4 4 4 4 4 4 4 4 3 4 4 4 3 3 3 3 3 3 2 2 2 1 1 2 2 1 2 2 1 1 1 1 1 2 2 1 1 1 2 2 2 3 3
3 3 3 4 4 3 3 3 3 4 4 4 3 3 3 3 3 3 2 2 3 3 2 2 2 3 2 2 2 2 1 1 2 2 2 2 3 3 2 2 3 3 3 2 2 3 3 4 4
3 3 4 5 5 4 4 4 4 4 4 4 3 3 3 3 3 2 2 2 2 3 2 2 2 3 3 3 3 2 2 3 3 4 3 4 4 4 3 4 4 4 4 4 4 4 4 5 5
3 4 4 5 5 5 5 5 5 5 5 4 4 3 4 3 4 3 3 3 3 3 3 4 3 3 3 3 3 3 3 4 4 4 4 4 4 3 4 4 4 5 5 5 4 5 5 5 5
4 5 5 5 5 6 6 6 6 6 6 5 5 5 5 5 5 4 4 5 4 5 5 5 4 4 4 4 4 4 4 5 4 4 4 5 5 5 5 5 5 6 6 5 5 6 5 6 6
4 5 5 5 6 6 6 6 7 7 7 7 6 5 5 6 6 5 5 5 5 6 6 6 6 6 6 6 6 6 6 5 5 5 5 6 6 6 6 7 7 7 7 7 7 7 7 7 7
4 5 5 6 6 6 6 7 7 7 7 7 7 7 7 7 7 7 6 6 6 6 6 7 7 7 7 7 7 7 7 6 7 7 7 7 7 7 7 7 7 7 8 8 8 8 8 7 7
4 4 5 6 6 6 7 7 7 8 8 8 8 8 8 8 8 8 7 7 7 7 7 8 8 8 8 8 8 8 8 8 8 8 8 8 8 8 8 8 8 8 9 9 9 9 8 8 8
4 4 5 6 6 7 7 7 8 8 8 9 9 9 9 9 9 9 9 9 9 8 8 8 9 9 9 9 8 9 9 9 8 9 9 9 9 9 9 10 10 10 10 9 9 9 9 9 9
5 5 5 6 6 6 7 8 8 8 9 9 10 10 9 9 9 9 10 9 9 9 9 9 9 9 9 10 10 10 9 9 9 9 9 9 9 10 10 11 11 11 10 10 9 9 9 9 9
5 5 6 6 6 7 7 8 8 9 9 10 10 10 10 10 10 10 10 10 10 10 10 9 9 9 10 10 10 10 10 10 10 10 10 10 10 10 10 11 12 12 11 10 10 10 9 9 9
6 6 6 6 7 7 8 8 9 10 10 10 11 10 10 10 10 10 10 10 10 10 10 10 10 11 11 11 11 11 11 11 11 11 11 11 11 11 11 11 12 12 12 10 10 10 10 9 9
6 6 7 7 8 8 8 9 9 10 10 11 11 11 11 11 11 11 11 11 11 11 11 11 11 12 12 12 12 12 11 12 12 12 12 11 11 11 11 11 11 12 12 11 10 10 10 9 9
7 7 8 8 8 8 9 10 10 10 11 11 12 12 12 12 12 12 12 12 12 12 11 11 12 12 13 12 12 12 12 12 12 12 12 12 12 12 12 12 12 12 11 11 10 10 10 10 9
7 7 8 9 9 9 9 10 11 11 11 12 12 12 12 12 12 12 12 12 12 12 12 12 12 13 13 13 13 13 13 13 12 12 12 12 12 12 13 12 12 12 11 11 10 11 10 10 10
7 8 9 9 9 10 10 11 12 11 12 12 12 12 13 13 13 12 12 13 13 12 12 12 13 13 13 13 13 13 13 13 13 13 13 13 13 13 13 13 13 12 10 10 10 10 11 11 11
7 8 9 9 9 10 10 11 12 12 12 12 12 13 13 13 13 13 13 13 13 13 13 12 13 13 13 13 14 14 14 13 13 13 14 13 13 13 13 13 12 12 11 11 11 11 11 11 11
8 8 9 10 10 10 10 11 12 12 13 13 13 12 12 13 13 13 13 13 14 14 14 13 13 13 13 13 13 13 13 13 13 13 14 13 13 13 13 12 12 11 11 11 11 12 12 12 12
8 8 9 10 10 10 10 11 11 11 11 12 12 12 12 12 13 13 12 13 13 14 14 14 13 13 13 13 13 13 13 13 13 13 13 13 13 13 12 11 11 11 12 12 12 12 12 12 12
9 9 9 10 10 10 10 10 9 9 10 10 11 12 12 12 12 13 13 13 14 13 13 13 13 13 13 13 13 12 13 13 12 12 12 11 12 12 12 11 11 11 12 12 12 12 12 12 13
9 9 9 10 10 10 10 9 9 9 10 10 11 11 11 12 13 13 13 14 14 14 14 14 14 13 13 13 12 13 12 12 12 11 11 11 12 11 11 10 11 11 11 11 12 12 12 12 12
9 9 9 9 10 10 9 10 10 10 10 10 11 11 12 13 13 14 14 15 15 15 15 15 15 14 14 14 14 13 13 13 13 12 12 12 12 11 11 11 11 11 11 11 11 12 12 12 12
9 9 9 10 10 10 10 11 11 11 11 11 11 12 12 13 14 14 15 15 15 15 15 15 15 15 15 14 14 14 13 13 12 12 12 12 11 10 10 10 11 11 11 12 12 12 12 12 12
9 9 10 10 10 11 12 12 12 12 11 12 12 13 13 14 14 15 15 15 15 15 15 16 16 16 16 15 15 15 14 14 13 13 12 12 11 11 11 11 11 11 12 12 13 14 13 13 12
10 10 10 11 12 13 13 13 12 12 12 12 13 13 13 13 14 15 15 16 16 16 16 16 17 16 15 15 15 15 14 14 14 13 12 12 12 12 12 12 12 13 13 14 14 14 14 13 12
10 11 12 13 13 14 14 13 13 13 13 13 14 14 14 14 14 15 16 16 16 16 16 17 17 17 16 16 16 15 15 14 14 13 13 13 14 14 14 14 14 14 15 15 14 15 15 13 13
12 12 13 14 15 15 15 15 14 13 14 14 15 15 15 15 15 16 16 16 16 17 17 17 16 16 16 16 16 16 15 15 14 14 14 15 14 14 15 16 16 16 16 16 15 15 14 14 14
13 14 14 15 16 16 16 16 15 15 15 15 15 15 16 15 15 16 17 17 17 17 17 18 17 17 17 17 17 16 16 15 15 14 15 15 15 15 16 16 17 16 16 16 16 15 15 15 15
15 15 15 16 17 17 17 17 16 16 16 17 17 17 17 17 17 17 17 17 17 17 17 18 18 17 17 17 17 16 16 16 15 15 16 16 17 17 16 16 17 17 17 16 16 16 16 16 16
Wind_Direction
180 169 155 146 148 156 153 148 142 136 132 134 133 134 135 134 132 133 125 119 126 134 136 138 134 127 119 110 109 121 140 139 150 154 152 158 160 133 169 189 294 313 303 327 331 333 324 332 331
189 173 166 168 161 163 163 154 152 148 142 142 147 149 148 151 146 141 140 133 144 151 151 150 149 153 154 154 142 117 136 150 172 185 194 202 215 245 276 269 277 280 280 294 302 306 309 313 311
199 193 185 185 184 183 180 176 174 168 166 161 165 168 164 165 166 162 160 160 171 183 188 182 188 199 205 213 237 224 207 204 216 225 239 246 258 268 283 286 277 281 275 276 290 296 302 302 299
217 213 204 203 208 207 205 208 203 196 197 187 191 202 196 193 195 197 189 190 199 212 226 224 222 219 229 234 240 250 238 239 251 252 258 267 270 276 279 281 280 278 271 269 279 289 294 295 295
228 217 211 214 213 215 217 223 231 223 212 209 216 228 229 226 222 225 223 224 227 230 244 254 248 246 260 251 260 261 258 260 262 263 265 271 275 279 283 281 279 279 278 279 283 288 292 293 292
232 222 213 212 219 226 227 231 232 229 232 233 240 244 242 241 240 242 243 243 244 240 248 252 250 257 263 260 263 268 258 263 265 274 272 271 271 269 270 271 276 278 278 279 283 286 288 290 289
232 224 220 224 232 233 234 238 237 234 243 249 247 247 246 246 246 248 248 250 248 247 250 252 260 261 261 262 261 259 258 264 270 273 272 270 267 265 265 271 277 281 280 281 282 281 282 289 290
235 231 231 233 236 237 240 241 240 243 244 249 250 249 249 251 253 252 254 259 259 258 257 260 265 263 265 265 266 264 261 261 270 271 272 273 268 266 269 273 278 285 287 285 282 281 280 285 288
235 232 232 237 243 242 244 243 243 247 248 250 253 254 253 255 256 255 258 263 265 268 265 264 264 262 261 262 265 264 263 266 271 273 272 275 273 266 268 271 278 287 287 284 282 283 282 286 286
242 237 239 241 245 244 245 243 246 249 251 253 254 255 258 258 258 257 261 263 265 269 269 268 266 265 259 261 266 267 266 265 272 273 271 271 270 274 277 275 278 282 280 278 278 282 281 282 283
246 240 242 246 249 247 246 246 247 250 255 255 257 257 260 257 258 261 264 266 266 268 271 270 266 265 262 261 265 267 265 268 272 272 274 275 274 277 278 278 278 277 273 274 276 276 280 281 283
250 248 249 250 250 250 251 251 249 251 256 258 259 259 259 257 256 261 264 267 268 268 267 265 261 261 262 263 267 265 268 273 273 271 272 275 276 277 277 277 279 278 273 273 276 277 278 277 276
253 251 251 252 253 254 256 256 253 255 257 258 260 260 260 260 258 260 264 268 268 267 266 265 261 261 265 266 269 268 271 272 274 272 272 273 274 276 278 276 276 278 276 277 278 275 276 274 274
257 259 260 260 260 259 259 259 257 259 259 258 258 257 257 259 261 261 265 268 270 270 268 267 265 264 265 267 270 271 271 271 274 275 274 271 271 274 278 278 278 278 275 273 274 274 271 270 272
262 263 263 264 267 266 264 261 261 262 261 261 260 257 256 258 261 264 265 268 270 271 269 267 263 263 265 266 268 268 269 272 274 276 277 273 270 272 275 277 277 278 273 268 268 270 269 274 276
268 269 269 267 268 270 270 269 265 264 263 262 260 257 258 260 262 263 265 269 269 269 269 269 267 266 265 265 267 270 271 272 272 275 277 272 271 274 277 278 277 279 274 265 262 267 268 277 280
269 272 272 271 269 270 271 272 270 267 264 263 261 257 259 262 264 264 265 267 267 269 268 268 269 270 268 266 268 270 272 272 273 274 275 272 272 273 276 277 275 272 272 265 261 269 275 279 280
271 271 272 274 275 274 273 271 271 268 264 264 261 259 260 262 265 265 266 267 266 269 270 269 270 273 273 270 269 271 272 272 272 271 272 271 272 273 274 277 274 266 265 267 270 273 275 280 280
272 273 275 277 279 278 276 274 273 269 266 264 262 263 264 262 263 266 268 268 268 270 271 270 272 274 276 275 274 273 271 271 272 273 273 270 270 274 277 275 275 268 267 269 272 272 273 278 279
275 277 280 283 282 280 279 278 275 271 268 266 265 263 264 263 261 264 267 267 268 271 272 271 272 271 274 275 274 274 270 270 272 273 272 270 270 270 272 272 275 271 267 267 271 274 276 280 280
272 276 282 285 283 283 282 282 279 275 273 271 268 264 263 264 263 267 268 268 268 270 272 272 273 270 269 270 271 274 273 276 276 272 268 269 272 271 272 274 275 273 267 269 272 275 277 279 281
272 277 282 286 287 285 285 284 282 278 275 274 272 267 265 265 266 268 268 269 270 270 270 269 269 268 268 268 267 270 274 274 274 272 270 272 272 270 269 270 273 273 269 270 274 277 279 281 281
273 277 283 286 287 286 286 284 283 282 280 276 272 271 270 269 269 269 269 269 270 269 270 270 269 270 270 270 270 269 269 268 270 269 267 270 273 271 268 268 273 274 273 272 275 278 279 281 282
275 280 284 285 285 286 285 283 282 281 282 278 275 275 273 271 269 268 269 269 268 267 269 270 271 269 269 270 271 271 269 269 268 267 267 270 273 274 272 271 274 276 276 272 272 273 277 280 280
277 281 286 287 286 284 284 284 285 284 282 282 280 278 275 272 270 269 269 269 268 268 269 271 271 268 268 271 272 272 270 270 268 267 268 269 272 275 275 271 275 278 279 277 275 275 278 282 282
277 279 280 283 286 286 287 287 288 283 281 282 281 279 276 272 269 269 269 268 269 268 270 271 271 270 269 270 272 272 269 269 268 267 269 270 273 277 275 277 279 280 279 279 277 276 277 280 282
273 275 279 281 283 286 288 290 287 286 282 282 282 280 276 273 270 269 269 268 268 267 267 269 270 270 271 272 270 269 266 266 265 264 266 268 272 275 275 276 279 282 278 276 279 278 275 275 278
273 276 280 283 286 288 289 288 288 287 284 282 282 283 280 277 274 273 272 271 271 269 266 267 267 269 270 270 269 267 266 264 262 263 265 266 268 270 272 275 277 278 279 276 278 280 276 275 275
275 278 281 284 285 286 287 286 288 287 284 282 281 280 280 278 276 274 272 271 272 271 269 268 267 268 270 268 268 269 268 265 265 266 266 266 266 268 271 272 273 276 279 277 276 277 277 277 276
274 277 280 282 283 283 283 285 287 285 283 282 280 279 278 277 276 275 273 272 272 272 271 269 268 268 268 267 268 268 268 266 266 267 267 267 269 268 270 271 273 275 276 276 274 274 274 277 279
Height
5896 5897 5898 5900 5901 5901 5900 5901 5901 5900 5900 5900 5900 5900 5900 5901 5901 5903 5900 5899 5899 5899 5898 5898 5898 5897 5897 5897 5896 5896 5896 5897 5896 5896 5896 5896 5896 5895 5895 5895 5894 5894 5893 5893 5892 5892 5891 5891 5890
5896 5897 5899 5900 5900 5901 5901 5901 5901 5901 5901 5900 5900 5901 5900 5900 5900 5900 5899 5899 5899 5899 5898 5898 5898 5898 5897 5897 5897 5896 5896 5896 5896 5896 5896 5896 5895 5895 5895 5894 5894 5893 5893 5892 5892 5891 5891 5890 5889
5896 5897 5899 5899 5900 5900 5901 5900 5901 5900 5900 5900 5901 5901 5901 5900 5900 5900 5899 5899 5899 5899 5898 5898 5898 5898 5897 5897 5897 5896 5896 5896 5896 5895 5895 5895 5895 5894 5894 5894 5893 5893 5892 5892 5891 5891 5890 5889 5889
5896 5898 5899 5899 5899 5900 5900 5900 5900 5900 5900 5900 5900 5900 5900 5900 5900 5900 5899 5899 5899 5898 5898 5898 5898 5897 5897 5896 5896 5896 5895 5895 5895 5895 5895 5895 5894 5894 5893 5893 5892 5892 5891 5891 5890 5890 5889 5889 5888
5896 5897 5898 5898 5898 5898 5899 5899 5899 5899 5899 5899 5900 5900 5900 5900 5899 5899 5899 5898 5898 5898 5898 5897 5897 5897 5896 5896 5896 5895 5895 5894 5894 5894 5894 5893 5893 5893 5892 5892 5891 5891 5890 5890 5889 5889 5888 5888 5887
5895 5896 5897 5897 5897 5898 5898 5898 5898 5899 5899 5899 5899 5899 5899 5899 5899 5898 5898 5898 5897 5897 5897 5896 5896 5896 5896 5895 5895 5895 5894 5894 5893 5893 5893 5892 5892 5892 5891 5891 5890 5890 5889 5889 5888 5888 5887 5886 5886
5895 5895 5895 5895 5896 5897 5897 5897 5897 5897 5898 5898 5898 5898 5898 5897 5898 5897 5897 5897 5896 5896 5896 5896 5895 5895 5895 5894 5894 5894 5893 5893 5892 5892 5892 5891 5891 5890 5890 5890 5889 5888 5888 5887 5887 5886 5885 5885 5884
5893 5894 5894 5894 5895 5896 5896 5896 5896 5896 5896 5897 5896 5896 5896 5896 5896 5896 5896 5895 5895 5895 5895 5894 5894 5894 5893 5893 5893 5892 5892 5892 5891 5891 5891 5890 5889 5889 5888 5888 5888 5887 5886 5886 5885 5884 5884 5883 5883
5892 5894 5893 5893 5894 5894 5894 5895 5895 5895 5895 5895 5895 5895 5895 5895 5895 5895 5894 5894 5894 5893 5893 5893 5893 5892 5892 5892 5891 5891 5891 5890 5890 5890 5889 5888 5888 5887 5887 5886 5886 5885 5885 5884 5883 5882 5882 5882 5881
5891 5892 5892 5892 5892 5893 5893 5893 5893 5893 5893 5893 5893 5893 5893 5893 5893 5893 5893 5892 5892 5892 5891 5891 5891 5890 5890 5890 5890 5889 5889 5889 5888 5888 5887 5887 5886 5885 5885 5884 5884 5883 5883 5882 5881 5881 5880 5880 5879
5889 5890 5890 5890 5890 5891 5891 5891 5891 5891 5891 5891 5891 5892 5891 5891 5891 5891 5891 5891 5890 5890 5889 5889 5889 5889 5888 5888 5888 5887 5887 5886 5886 5886 5885 5885 5884 5884 5883 5882 5881 5881 5880 5880 5879 5879 5878 5877 5877
5888 5888 5888 5888 5889 5889 5889 5889 5889 5889 5890 5889 5889 5889 5889 5889 5889 5889 5889 5889 5888 5888 5887 5887 5887 5887 5886 5886 5886 5885 5885 5884 5884 5884 5883 5883 5882 5882 5881 5880 5879 5878 5878 5877 5877 5876 5876 5875 5875
5886 5886 5886 5887 5887 5887 5887 5887 5887 5887 5887 5887 5887 5887 5887 5887 5887 5887 5887 5887 5886 5886 5885 5885 5885 5884 5884 5884 5884 5883 5883 5882 5882 5881 5881 5880 5880 5879 5879 5878 5877 5876 5876 5875 5875 5874 5874 5873 5873
5885 5885 5885 5885 5885 5885 5885 5885 5885 5885 5884 5884 5884 5884 5884 5884 5884 5884 5884 5884 5884 5883 5883 5882 5882 5882 5882 5881 5881 5881 5880 5880 5879 5879 5878 5878 5877 5877 5876 5876 5875 5874 5873 5873 5873 5872 5871 5871 5870
5883 5883 5883 5883 5883 5883 5883 5883 5882 5882 5882 5882 5881 5881 5882 5882 5882 5882 5882 5881 5881 5881 5880 5880 5880 5879 5879 5879 5879 5878 5878 5877 5877 5876 5876 5875 5875 5874 5874 5873 5872 5871 5871 5870 5870 5869 5869 5869 5868
5881 5881 5881 5881 5881 5881 5882 5881 5880 5879 5879 5879 5879 5879 5879 5879 5879 5879 5879 5879 5878 5878 5878 5877 5877 5877 5876 5876 5876 5876 5875 5874 5874 5873 5873 5873 5872 5872 5871 5870 5870 5869 5868 5868 5868 5867 5866 5866 5866
5879 5879 5879 5879 5879 5878 5879 5878 5877 5876 5876 5876 5876 5876 5876 5876 5876 5876 5876 5875 5875 5875 5875 5874 5874 5874 5873 5873 5873 5873 5872 5872 5871 5871 5870 5870 5869 5869 5868 5867 5867 5866 5865 5865 5865 5864 5864 5864 5863
5878 5877 5877 5876 5876 5876 5875 5875 5874 5873 5873 5873 5873 5873 5873 5873 5873 5873 5873 5872 5872 5872 5871 5871 5871 5871 5870 5870 5870 5870 5869 5868 5868 5868 5867 5867 5866 5866 5865 5864 5864 5863 5863 5862 5862 5862 5861 5861 5860
5875 5875 5875 5874 5873 5873 5872 5872 5871 5870 5870 5870 5870 5870 5870 5870 5870 5870 5870 5869 5869 5869 5868 5868 5868 5868 5867 5867 5867 5866 5866 5865 5865 5865 5864 5864 5863 5863 5862 5862 5861 5861 5860 5860 5860 5859 5859 5858 5858
5873 5873 5872 5871 5871 5870 5870 5869 5868 5867 5867 5867 5867 5867 5867 5867 5867 5867 5867 5866 5866 5866 5865 5865 5864 5864 5864 5864 5864 5863 5863 5862 5862 5861 5861 5860 5860 5860 5859 5859 5858 5858 5857 5857 5857 5857 5856 5855 5855
5870 5870 5870 5869 5868 5867 5867 5867 5866 5865 5865 5864 5864 5864 5864 5864 5864 5864 5863 5863 5863 5862 5862 5861 5861 5861 5861 5860 5860 5860 5859 5859 5859 5858 5857 5857 5857 5856 5856 5856 5855 5855 5854 5854 5854 5854 5853 5852 5851
5868 5867 5867 5866 5866 5865 5865 5865 5864 5863 5862 5862 5861 5861 5861 5860 5860 5860 5860 5860 5859 5859 5859 5858 5858 5857 5857 5857 5857 5857 5856 5856 5855 5855 5854 5854 5853 5853 5852 5852 5852 5852 5852 5851 5851 5850 5850 5849 5848
5865 5865 5864 5864 5863 5863 5862 5862 5862 5860 5859 5859 5858 5858 5857 5857 5857 5857 5856 5856 5856 5855 5855 5855 5855 5854 5854 5853 5853 5853 5853 5853 5852 5851 5851 5850 5850 5849 5849 5849 5849 5849 5849 5848 5848 5847 5846 5846 5845
5862 5862 5862 5861 5861 5861 5860 5860 5859 5857 5857 5856 5855 5854 5854 5854 5853 5853 5852 5852 5852 5851 5851 5851 5851 5850 5850 5850 5849 5849 5849 5849 5849 5848 5848 5847 5847 5847 5846 5846 5846 5846 5845 5845 5844 5844 5843 5843 5842
5860 5860 5860 5859 5859 5858 5857 5856 5856 5854 5853 5852 5852 5851 5850 5849 5849 5849 5848 5848 5848 5848 5847 5847 5847 5846 5846 5846 5846 5845 5845 5845 5845 5845 5845 5844 5844 5844 5844 5844 5843 5843 5842 5842 5841 5841 5840 5840 5839
5857 5858 5858 5858 5857 5855 5854 5853 5853 5851 5850 5849 5848 5847 5846 5846 5845 5845 5844 5844 5844 5844 5844 5843 5843 5842 5842 5842 5842 5841 5841 5842 5842 5841 5841 5841 5841 5841 5841 5840 5840 5840 5839 5838 5838 5837 5837 5836 5836
5854 5854 5854 5854 5852 5852 5851 5850 5849 5847 5846 5845 5844 5843 5842 5841 5841 5840 5840 5840 5840 5839 5839 5839 5838 5838 5838 5838 5838 5838 5838 5838 5838 5838 5838 5838 5838 5838 5837 5837 5837 5836 5836 5835 5834 5834 5833 5833 5832
5851 5850 5850 5849 5848 5847 5847 5845 5845 5843 5842 5841 5840 5839 5838 5837 5837 5836 5836 5835 5835 5835 5835 5834 5834 5834 5833 5833 5833 5833 5833 5834 5834 5834 5834 5834 5834 5834 5834 5833 5833 5832 5832 5831 5831 5830 5829 5829 5828
5847 5846 5845 5844 5844 5843 5842 5843 5841 5839 5838 5837 5836 5835 5834 5833 5833 5832 5831 5831 5830 5830 5830 5830 5830 5829 5829 5829 5829 5829 5829 5829 5829 5830 5830 5830 5830 5830 5830 5829 5829 5828 5827 5827 5826 5826 5825 5825 5824
5842 5841 5841 5841 5839 5838 5837 5839 5836 5834 5833 5832 5831 5831 5830 5829 5828 5827 5827 5826 5826 5825 5825 5825 5825 5825 5825 5825 5825 5825 5825 5825 5825 5825 5825 5825 5825 5825 5825 5824 5824 5823 5823 5822 5822 5821 5821 5820 5820